| time (UTC) | temp F | wind direction | speed knots | gust knots | rain 1hr in | rain 24hr in | rain mn in | humidity % | barometer mb |
| 20260901143052 | 69 | 212 | 0.0 | 0.0 | 0.00 | 0.00 | 0.07 | 100 | 1015.6 |
| 20260901141553 | 68 | 212 | 0.0 | 0.0 | 0.00 | 0.00 | 0.07 | 100 | 1015.7 |
| 20260901140042 | 69 | 212 | 0.0 | 0.0 | 0.00 | 0.00 | 0.07 | 100 | 1015.6 |
| 20260901134635 | 68 | 212 | 0.9 | 0.0 | 0.00 | 0.00 | 0.07 | 100 | 1015.5 |
| 20260901133039 | 69 | 202 | 0.0 | 0.0 | 0.00 | 0.00 | 0.07 | 100 | 1015.5 |
| 20260901131529 | 68 | 202 | 0.0 | 0.0 | 0.00 | 0.00 | 0.07 | 100 | 1015.7 |
| 20260901130026 | 68 | 200 | 0.9 | 0.0 | 0.00 | 0.00 | 0.07 | 100 | 1015.8 |
| 20260901124624 | 68 | 199 | 0.0 | 0.0 | 0.00 | 0.00 | 0.07 | 100 | 1015.8 |
| 20260901123019 | 68 | 199 | 0.0 | 0.0 | 0.00 | 0.00 | 0.07 | 100 | 1016.2 |
| 20260901121509 | 67 | 199 | 0.0 | 0.0 | 0.00 | 0.00 | 0.07 | 100 | 1016.2 |
| 20260901120017 | 67 | 199 | 0.0 | 0.0 | 0.00 | 0.00 | 0.07 | 100 | 1016.2 |
| 20260901114602 | 0 | 0.0 | 0.0 | 0.00 | 0.00 | 0.07 | 1016.3 | ||
| 20260901113103 | 0 | 0.0 | 0.0 | 0.00 | 0.00 | 0.07 | 1016.2 | ||
| 20260901111553 | 0 | 0.0 | 0.0 | 0.00 | 0.00 | 0.07 | 1016.1 | ||
| 20260901110056 | 0 | 0.0 | 0.0 | 0.00 | 0.00 | 0.07 | 1016.1 | ||
| 20260901104545 | 0 | 0.0 | 0.0 | 0.00 | 0.00 | 0.07 | 1016.1 | ||
| 20260901103048 | 0 | 0.0 | 0.0 | 0.00 | 0.00 | 0.07 | 1016.0 | ||
| 20260901101536 | 0 | 0.0 | 0.0 | 0.00 | 0.00 | 0.07 | 1016.0 | ||
| 20260901100032 | 66 | 199 | 0.0 | 0.0 | 0.00 | 0.00 | 0.07 | 100 | 1015.8 |
| 20260901094529 | 66 | 199 | 0.9 | 0.0 | 0.00 | 0.00 | 0.07 | 100 | 1015.9 |
| 20260901093026 | 66 | 199 | 0.0 | 0.0 | 0.00 | 0.00 | 0.07 | 100 | 1015.8 |
| 20260901091523 | 65 | 199 | 1.7 | 0.0 | 0.00 | 0.00 | 0.07 | 100 | 1015.8 |
| 20260901090018 | 65 | 198 | 0.0 | 0.0 | 0.00 | 0.00 | 0.06 | 100 | 1015.8 |
| 20260901084513 | 65 | 198 | 0.0 | 0.0 | 0.00 | 0.00 | 0.06 | 100 | 1015.8 |
| 20260901083022 | 65 | 198 | 0.0 | 0.0 | 0.00 | 0.00 | 0.06 | 100 | 1015.8 |
| 20260901081510 | 65 | 198 | 0.0 | 0.0 | 0.00 | 0.00 | 0.06 | 100 | 1015.9 |
| 20260901080006 | 64 | 198 | 0.0 | 0.0 | 0.00 | 0.00 | 0.06 | 100 | 1016.0 |
| 20260901074502 | 64 | 198 | 0.0 | 0.0 | 0.00 | 0.00 | 0.06 | 100 | 1016.2 |
| 20260901073056 | 64 | 198 | 0.0 | 0.0 | 0.00 | 0.00 | 0.06 | 100 | 1016.4 |
| 20260901071559 | 64 | 198 | 0.0 | 0.0 | 0.00 | 0.00 | 0.05 | 100 | 1016.5 |
| 20260901070047 | 64 | 198 | 0.0 | 0.0 | 0.00 | 0.00 | 0.02 | 100 | 1016.6 |
| 20260901064543 | 64 | 198 | 0.0 | 0.0 | 0.00 | 0.00 | 0.02 | 100 | 1016.7 |
| 20260901063039 | 64 | 198 | 0.0 | 0.0 | 0.00 | 0.00 | 0.02 | 100 | 1016.7 |
| 20260901061535 | 64 | 198 | 0.0 | 0.0 | 0.00 | 0.00 | 0.01 | 100 | 1016.9 |
| 20260901060031 | 64 | 198 | 0.0 | 0.0 | 0.00 | 0.00 | 0.01 | 100 | 1017.1 |
| 20260901054526 | 64 | 198 | 0.0 | 0.0 | 0.00 | 0.00 | 0.01 | 100 | 1017.3 |
| 20260901053025 | 64 | 198 | 0.0 | 0.0 | 0.00 | 0.00 | 0.01 | 100 | 1017.4 |
| 20260901051521 | 64 | 198 | 0.0 | 0.0 | 0.00 | 0.00 | 0.01 | 100 | 1017.5 |
| 20260901050017 | 64 | 198 | 0.0 | 0.0 | 0.00 | 0.00 | 0.01 | 100 | 1017.4 |
| 20260901044512 | 64 | 198 | 0.0 | 0.0 | 0.00 | 0.00 | 0.01 | 100 | 1017.5 |
| 20260901043007 | 64 | 198 | 0.0 | 0.0 | 0.00 | 0.00 | 0.01 | 100 | 1017.4 |
| 20260901041503 | 64 | 198 | 0.0 | 0.0 | 0.00 | 0.00 | 0.01 | 100 | 1017.8 |
| 20260901040109 | 64 | 198 | 0.0 | 0.0 | 0.00 | 0.00 | 0.00 | 100 | 1017.8 |
| 20260901034602 | 64 | 198 | 0.0 | 0.0 | 0.00 | 0.00 | 0.04 | 100 | 1017.5 |
| 20260901033053 | 64 | 198 | 0.0 | 0.0 | 0.00 | 0.00 | 0.04 | 100 | 1017.6 |
| 20260901031552 | 64 | 198 | 0.0 | 0.0 | 0.00 | 0.00 | 0.04 | 100 | 1017.5 |
| 20260901030044 | 64 | 198 | 0.0 | 0.0 | 0.00 | 0.00 | 0.04 | 100 | 1017.8 |
| 20260901024540 | 64 | 198 | 0.0 | 0.0 | 0.00 | 0.00 | 0.04 | 100 | 1018.0 |
| 20260901023043 | 64 | 198 | 0.0 | 0.0 | 0.00 | 0.00 | 0.04 | 100 | 1018.3 |
| 20260901021535 | 64 | 198 | 0.0 | 0.0 | 0.00 | 0.00 | 0.04 | 100 | 1018.4 |
| 20260901020029 | 64 | 198 | 0.0 | 0.0 | 0.00 | 0.00 | 0.04 | 100 | 1018.3 |
| 20260901014524 | 64 | 198 | 0.0 | 0.0 | 0.00 | 0.00 | 0.03 | 100 | 1018.3 |
| 20260901013021 | 64 | 198 | 0.0 | 0.0 | 0.00 | 0.00 | 0.03 | 100 | 1018.5 |
| 20260901011516 | 64 | 198 | 0.0 | 0.0 | 0.00 | 0.00 | 0.03 | 100 | 1018.4 |
| 20260901010012 | 64 | 198 | 0.0 | 0.0 | 0.00 | 0.00 | 0.03 | 100 | 1018.2 |
| 20260901004508 | 64 | 198 | 0.0 | 0.0 | 0.00 | 0.00 | 0.03 | 100 | 1018.2 |
| 20260901003007 | 64 | 198 | 0.0 | 0.0 | 0.00 | 0.00 | 0.03 | 100 | 1018.1 |
| 20260901001504 | 64 | 198 | 0.0 | 0.0 | 0.00 | 0.00 | 0.02 | 100 | 1018.2 |
| 20260901000104 | 64 | 198 | 0.0 | 0.0 | 0.00 | 0.00 | 0.02 | 100 | 1018.3 |
| 20260831234555 | 64 | 198 | 0.0 | 0.0 | 0.00 | 0.00 | 0.01 | 100 | 1018.4 |
| 20260831233052 | 65 | 198 | 0.0 | 0.0 | 0.00 | 0.00 | 0.01 | 100 | 1018.4 |
| 20260831231549 | 65 | 198 | 0.0 | 0.0 | 0.00 | 0.00 | 0.01 | 100 | 1018.5 |
| 20260831230043 | 65 | 198 | 0.0 | 0.0 | 0.00 | 0.00 | 0.01 | 100 | 1018.7 |
| 20260831224539 | 65 | 198 | 0.0 | 0.0 | 0.00 | 0.00 | 0.01 | 100 | 1018.8 |
| 20260831223037 | 66 | 198 | 0.0 | 0.0 | 0.00 | 0.00 | 0.01 | 100 | 1018.9 |
| 20260831221532 | 66 | 198 | 0.0 | 0.0 | 0.00 | 0.00 | 0.01 | 100 | 1018.8 |
| 20260831220026 | 66 | 198 | 0.0 | 0.0 | 0.00 | 0.00 | 0.01 | 100 | 1018.8 |
| 20260831214525 | 66 | 198 | 0.0 | 0.0 | 0.00 | 0.00 | 0.01 | 100 | 1018.8 |
| 20260831213018 | 66 | 198 | 0.0 | 0.0 | 0.00 | 0.00 | 0.01 | 100 | 1018.8 |
| 20260831211525 | 67 | 198 | 0.0 | 0.0 | 0.00 | 0.00 | 0.01 | 3 | 1018.8 |
| 20260831210010 | 67 | 198 | 0.0 | 0.0 | 0.00 | 0.00 | 0.01 | 8 | 1018.9 |
| 20260831204510 | 67 | 198 | 0.9 | 0.0 | 0.00 | 0.00 | 0.01 | 14 | 1019.1 |
| 20260831203005 | 68 | 199 | 0.9 | 0.0 | 0.00 | 0.00 | 0.01 | 18 | 1018.9 |
| 20260831201557 | 68 | 200 | 0.0 | 0.0 | 0.00 | 0.00 | 0.01 | 17 | 1019.0 |
| 20260831200056 | 68 | 196 | 0.9 | 0.0 | 0.00 | 0.00 | 0.01 | 12 | 1019.1 |
| 20260831194608 | 68 | 196 | 0.0 | 0.0 | 0.00 | 0.00 | 0.01 | 10 | 1019.1 |
| 20260831193051 | 68 | 196 | 0.0 | 0.0 | 0.00 | 0.00 | 0.01 | 9 | 1019.2 |
| 20260831191550 | 69 | 196 | 0.0 | 0.0 | 0.00 | 0.00 | 0.01 | 14 | 1019.4 |
| 20260831190045 | 68 | 196 | 0.0 | 0.0 | 0.00 | 0.00 | 0.01 | 10 | 1019.6 |
| 20260831184538 | 67 | 196 | 0.0 | 0.0 | 0.00 | 0.00 | 0.01 | 100 | 1019.8 |
| 20260831183031 | 67 | 196 | 0.9 | 0.0 | 0.00 | 0.00 | 0.01 | 100 | 1019.8 |
| 20260831181528 | 66 | 196 | 0.0 | 0.0 | 0.00 | 0.00 | 0.01 | 100 | 1019.8 |
| 20260831180025 | 66 | 196 | 0.9 | 0.0 | 0.00 | 0.00 | 0.01 | 100 | 1020.2 |
| 20260831174520 | 66 | 194 | 0.0 | 0.0 | 0.00 | 0.00 | 0.01 | 100 | 1020.1 |
| 20260831173025 | 66 | 194 | 0.0 | 0.0 | 0.00 | 0.00 | 0.01 | 100 | 1020.3 |
| 20260831171514 | 67 | 194 | 0.0 | 0.0 | 0.00 | 0.00 | 0.00 | 5 | 1020.1 |
| 20260831170011 | 67 | 198 | 2.6 | 0.0 | 0.00 | 0.00 | 0.00 | 21 | 1020.5 |
| 20260831164506 | 69 | 205 | 3.5 | 0.0 | 0.00 | 0.00 | 0.00 | 31 | 1020.4 |
| 20260831163005 | 70 | 231 | 1.7 | 0.0 | 0.00 | 0.00 | 0.00 | 46 | 1020.5 |
| 20260831161558 | 71 | 169 | 0.9 | 0.0 | 0.00 | 0.00 | 0.00 | 49 | 1020.4 |
| 20260831160055 | 72 | 143 | 0.0 | 0.0 | 0.00 | 0.00 | 0.00 | 50 | 1020.4 |
| 20260831154550 | 72 | 140 | 0.0 | 0.0 | 0.00 | 0.00 | 0.00 | 50 | 1020.4 |
| 20260831153043 | 72 | 140 | 0.0 | 0.0 | 0.00 | 0.00 | 0.00 | 48 | 1020.5 |
| 20260831151539 | 71 | 138 | 0.0 | 0.0 | 0.00 | 0.00 | 0.00 | 46 | 1020.7 |
| 20260831150034 | 70 | 136 | 0.9 | 0.0 | 0.00 | 0.00 | 0.00 | 40 | 1020.6 |
| 20260831144530 | 68 | 124 | 0.9 | 0.0 | 0.00 | 0.00 | 0.00 | 29 | 1020.5 |